Powrót do katalogu

ATLAS 5 CENTAUR DEB

LostHEO
NORAD 52829·DEBRIS·🇺🇸 United States

Wystrzelony Sep 17, 2014 z Cape Canaveral Space Force Station

Loading…

Następne Przeloty (najbliższe 24 godziny)

TLE

NieaktualneSource: Space-Track

Epoka: Nov 27, 2024, 23:30 UTC

1 52829U 14055DM  24332.97941014 -.00000083  00000-0  00000-0 0  9992
2 52829  19.9711 230.6378 4824186  14.7578 355.5043  1.76247197 16332

Śledź ATLAS 5 CENTAUR DEB w czasie rzeczywistym z AllMySat

Download on the App Store